Regional Weather Roundup
Issued by NWS

Home | Current Version | Previous Version | Text Only | Print | Product List | Glossary On
Versions: 1 2 3 4 5 6 7 8 9 10 11 12 13 14 15 16 17 18 19 20 21 22 23 24 25 26 27 28 29 30 31 32 33 34 35 36 37 38 39 40 41 42 43 44 45 46 47 48 49 50
959
ASUS43 KTOP 031759
RWRKS

WEATHER ROUNDUP FOR KANSAS
NATIONAL WEATHER SERVICE GOODLAND KS
100 PM CDT TUE MAY 03 2016

NOTE:  "FAIR" INDICATES FEW OR NO CLOUDS BELOW 12,000 FEET WITH NO
SIGNIFICANT WEATHER AND/OR OBSTRUCTIONS TO VISIBILITY.

KSZ001>006-013>018-027>032-041>047-031900-
NORTHWEST KANSAS

CITY           SKY/WX    TMP DP  RH WIND       PRES   REMARKS
GOODLAND       MOSUNNY   59  39  47 N15       30.13S
6HR MIN TEMP:  40; 6HR MAX TEMP:  59;

HAYS           SUNNY     63  39  42 N7        30.07F
HILL CITY      MOSUNNY   63  43  48 VRB3      30.09F
6HR MIN TEMP:  45; 6HR MAX TEMP:  65;

RUSSELL        SUNNY     65  42  43 W7        30.04F
6HR MIN TEMP:  44; 6HR MAX TEMP:  67;

$$

KSZ061>065-074>080-084>089-031900-
SOUTHWEST KANSAS

CITY           SKY/WX    TMP DP  RH WIND       PRES   REMARKS
DODGE CITY     SUNNY     64  40  41 N10       30.07F
6HR MIN TEMP:  44; 6HR MAX TEMP:  65;

ELKHART          N/A     62  36  38 NW13        N/A
GARDEN CITY    PTSUNNY   62  40  44 N13       30.10S
6HR MIN TEMP:  41; 6HR MAX TEMP:  64;

GREAT BEND     SUNNY     64  45  48 W5        30.05F
LIBERAL        PTSUNNY   64  41  42 N13G22    30.10F
$$

KSZ066>073-081>083-090>101-031900-
SOUTHEAST KANSAS

CITY           SKY/WX    TMP DP  RH WIND       PRES   REMARKS
CHANUTE        SUNNY     66  43  43 VRB3      30.08F
6HR MIN TEMP:  39; 6HR MAX TEMP:  66;

COFFEYVILLE    SUNNY     67  46  47 S7        30.09F
6HR MIN TEMP:  40; 6HR MAX TEMP:  68;

HUTCHINSON     SUNNY     71  42  35 SW9G17    30.05F
6HR MIN TEMP:  37; 6HR MAX TEMP:  71;

MEDICINE LODGE   N/A     68  43  40 S10       30.06F
NEWTON         SUNNY     66  43  42 CALM      30.08F
PARSONS        SUNNY     66  43  43 VRB3      30.09F
6HR MIN TEMP:  38; 6HR MAX TEMP:  66;

WICHITA INTL   MOSUNNY   68  46  45 S12       30.06F
6HR MIN TEMP:  43; 6HR MAX TEMP:  68;

WICHITA JABRA  SUNNY     68  42  38 S8        30.06F
6HR MIN TEMP:  40; 6HR MAX TEMP:  69;

WINFIELD       SUNNY     68  46  45 SW9       30.27R
6HR MIN TEMP:  41; 6HR MAX TEMP:  68;

$$

KSZ007>012-019>026-033>040-048>060-102>105-031900-
NORTHEAST KANSAS

CITY           SKY/WX    TMP DP  RH WIND       PRES   REMARKS
CONCORDIA      SUNNY     68  43  40 SE8       30.04F
6HR MIN TEMP:  39; 6HR MAX TEMP:  68;

EMPORIA        SUNNY     66  41  40 SW8       30.06F
6HR MIN TEMP:  41; 6HR MAX TEMP:  67;

LAWRENCE       SUNNY     66  39  37 CALM      30.07F
6HR MIN TEMP:  38; 6HR MAX TEMP:  66;

MANHATTAN      SUNNY     69  40  34 CALM      30.05F
6HR MIN TEMP:  42; 6HR MAX TEMP:  69;

OLATHE IND     MOSUNNY   63  38  39 CALM      30.07F
6HR MIN TEMP:  43; 6HR MAX TEMP:  65;

OLATHE EXE     PTSUNNY   63  40  42 SW9       30.07F
6HR MIN TEMP:  45; 6HR MAX TEMP:  65;

SALINA         SUNNY     70  48  45 S9        30.04F
6HR MIN TEMP:  46; 6HR MAX TEMP:  70;

TOPEKA BILLARD MOSUNNY   66  40  38 MISG      30.06F
6HR MIN TEMP:  39; 6HR MAX TEMP:  67; 6HR PCP: TRACE;

TOPEKA FORBES  PTSUNNY   66  43  43 VRB3      30.06F
6HR MIN TEMP:  40; 6HR MAX TEMP:  68;

$$




USA.gov is the U.S. government's official web portal to all federal, state and local government web resources and services.